Skip Page Navigation
NASA JPL Caltech
NASA Logo - Jet Propulsion Laboratory + View the NASA Portal
+ Center for Near-Earth Object Studies
JPL Home Earth Solar System Stars & Galaxies Technology
JPL Solar System Dynamics
BODIES ORBITS EPHEMERIDES TOOLS PHYSICAL DATA DISCOVERY FAQ SITE MAP
JPL Small-Body Database Browser
Search: [ help ]  
249467 (2009 HS105)
Classification: Main-belt Asteroid          SPK-ID: 2249467
Ephemeris | Orbit Diagram | Orbital Elements | Mission Design | Physical Parameters | Discovery Circumstances | Close-Approach Data ]

[ show orbit diagram ]
Orbital Elements at Epoch 2459000.5 (2020-May-31.0) TDB
Reference: JPL 11 (heliocentric ecliptic J2000)
 Element Value Uncertainty (1-sigma)   Units 
e .1339998791089447 4.8858e-08  
a 3.138320032455736 3.2812e-08 au
q 2.717785527501487 1.6801e-07 au
i 4.589728297854724 8.0112e-06 deg
node 236.6072785237034 8.3396e-05 deg
peri 43.62981136397146 9.0348e-05 deg
M 313.2459541434591 3.482e-05 deg
tp 2459264.230870386009
(2021-Feb-18.73087039)
0.00019661 TDB
period 2030.692993506584
5.56
3.1847e-05
8.719e-08
d
yr
n .1772793825315539 2.7803e-09 deg/d
Q 3.558854537409984 3.7209e-08 au
  Orbit Determination Parameters
   # obs. used (total)      229  
   data-arc span      9305 days (25.48 yr)  
   first obs. used      1994-11-05  
   last obs. used      2020-04-27  
   planetary ephem.      DE431  
   SB-pert. ephem.      SB431-N16  
   condition code      0  
   norm. resid. RMS      .5617  
   source      ORB  
   producer      Otto Matic  
   solution date      2020-May-21 13:44:35  

Additional Information
 Earth MOID = 1.70376 au 
 Jupiter MOID = 1.57285 au 
 T_jup = 3.192 
[ show covariance matrix ]

Ephemeris | Orbit Diagram | Orbital Elements | Mission Design | Physical Parameters | Discovery Circumstances | Close-Approach Data ]

Physical Parameter Table
Parameter Symbol Value Units Sigma Reference Notes
absolute magnitude H 15.7   n/a MPO433635  
diameter diameter 3.852 km 0.753 urn:nasa:pds:neowise_diameters_albedos::2.0[mainbelt] (http://adsabs.harvard.edu/abs/2011ApJ...741...68M)  
geometric albedo albedo 0.068   0.021 urn:nasa:pds:neowise_diameters_albedos::2.0[mainbelt] (http://adsabs.harvard.edu/abs/2011ApJ...741...68M)  

249467 (2009 HS105)          Discovered 2009-Apr-29 by Spacewatch at Kitt Peak
Reference: 20100824/Numbers.arcLast Updated: 2010-08-27

[ show close-approach data ]
Alternate Designations
 2009 HS105 = 1994 VV4 = 2005 SL182 = 2008 EM70 
Ephemeris | Orbit Diagram | Orbital Elements | Mission Design | Physical Parameters | Discovery Circumstances | Close-Approach Data ]
ABOUT SSD CREDITS/AWARDS PRIVACY/COPYRIGHT GLOSSARY LINKS
FirstGov 2020-Nov-01 02:15 UT
(server date/time)  
NASA Home Page
Site Manager:   Ryan S. Park
Webmaster  Alan B. Chamberlin